Satellite-Ground Cal/Val Site Overpasses Predictions

Prediction of Satellite NPP Overpassing Cal/Val Site: Antarctic Dome C

Ground Cal/Val Site Location: Latitude: -75.10, Longitude: 123.35; Satellite-Ground Site NADIR distance within 100 km.

Table of predicted overpasses for the next 14.0 days since TLE Epoch: 11/27/2011
Interval Starting Time Ending Time Minimum Distance Time Minimum Distance (km)
1 11/29/2011 14:55:31 11/29/2011 14:56:00 11/29/2011 14:55:46 20.37
2 11/30/2011 14:36:48 11/30/2011 14:37:02 11/30/2011 14:36:55 87.02
3 12/01/2011 07:38:20 12/01/2011 07:38:46 12/01/2011 07:38:33 41.64
4 12/02/2011 07:19:31 12/02/2011 07:19:52 12/02/2011 07:19:42 68.29
5 12/04/2011 15:01:44 12/04/2011 15:02:08 12/04/2011 15:01:56 57.16
6 12/05/2011 14:42:54 12/05/2011 14:43:18 12/05/2011 14:43:06 52.12
7 12/06/2011 07:44:35 12/06/2011 07:44:53 12/06/2011 07:44:44 76.75
8 12/07/2011 07:25:39 12/07/2011 07:26:07 12/07/2011 07:25:53 31.10
9 12/09/2011 15:08:04 12/09/2011 15:08:12 12/09/2011 15:08:08 94.85


<
